Home   Weather   Mannheim   Past weeks

Flag for Germany Past Weather in Mannheim, Baden-Württemberg, Germany — Yesterday and Last 2 Weeks

Now
75 °F

Passing clouds.


Feels Like: 78 °F
Forecast: 61 / 81 °F
Wind: 12 mph from West

Location: Mannheim City

Current Time: Jun 25, 2017 at 12:33:28 pm

Latest Report: Jun 25, 2017 at 11:50 am


Visibility: N/A

Pressure: 29.95 "Hg

Humidity: 44%

Dew Point: 52 °F

Location of MannheimLocation

Past Weather in Mannheim — Graph

°F

Mannheim Temperature Yesterday

Maximum temperature yesterday: 81 °F (at 5:20 pm)
Minimum temperature yesterday: 68 °F (at 6:50 am)
Average temperature yesterday: 75 °F

High & Low Weather Summary for the Past Weeks

 TemperatureHumidityPressure
High93 °F (Jun 22, 2:20 pm)94% (Jun 13, 5:50 am)30.33 "Hg (Jun 13, 5:50 am)
Low54 °F (Jun 13, 5:50 am)25% (Jun 19, 3:50 pm)29.80 "Hg (Jun 22, 8:20 pm)
Average76 °F47%30.05 "Hg
* Reported Jun 10 11:20 am — Jun 25 11:20 am, Mannheim. Weather by CustomWeather, © 2017

Note: Actual official high and low records may vary slightly from our data, if they occured in-between our weather recording intervals... More about our weather records

Advertising

Mannheim Weather History for the Previous 24 Hours

Scroll right to see more
 ConditionsComfort  
Time TempWeatherWind HumidityBarometerVisibility
11:20 am
Sun, Jun 25
77 °FSunny.13 mph42%29.95 "Hg10 mi
10:50 am75 °FPassing clouds.9 mph47%29.95 "HgN/A
10:20 am73 °FPassing clouds.10 mph50%29.95 "HgN/A
9:20 am70 °FPassing clouds.7 mph57%29.95 "HgN/A
8:50 am70 °FSunny.9 mph57%29.98 "Hg10 mi
8:20 am68 °FPassing clouds.7 mph60%29.98 "HgN/A
7:50 am68 °FPassing clouds.5 mph60%29.95 "HgN/A
9:20 pm
Sat, Jun 24
75 °FSunny.8 mph41%29.95 "Hg10 mi
8:50 pm77 °FPassing clouds.8 mph39%29.95 "HgN/A
8:20 pm79 °FPassing clouds.9 mph37%29.98 "HgN/A
7:50 pm79 °FPassing clouds.10 mph37%29.98 "HgN/A
7:20 pm79 °FPassing clouds.10 mph37%29.98 "HgN/A
6:50 pm81 °FPassing clouds.9 mph34%29.98 "HgN/A
6:20 pm79 °FPassing clouds.8 mph37%29.98 "HgN/A
5:50 pm79 °FPassing clouds.12 mph37%29.98 "HgN/A
5:20 pm81 °FPassing clouds.10 mph34%29.98 "HgN/A
4:50 pm79 °FPassing clouds.10 mph37%29.98 "HgN/A
4:20 pm79 °FPassing clouds.10 mph34%30.01 "HgN/A
3:50 pm77 °FPassing clouds.12 mph36%30.01 "HgN/A
3:20 pm77 °FPassing clouds.7 mph39%30.01 "HgN/A
2:50 pm79 °FPassing clouds.12 mph37%30.04 "HgN/A
2:20 pm77 °FSunny.10 mph36%30.04 "Hg10 mi
1:50 pm75 °FPassing clouds.10 mph41%30.04 "HgN/A
1:20 pm75 °FPassing clouds.13 mph39%30.04 "HgN/A
12:50 pm73 °FPassing clouds.9 mph44%30.04 "HgN/A
12:20 pm73 °FPassing clouds.13 mph47%30.07 "HgN/A
Weather by CustomWeather, © 2017

See weather overviewHow to use our weather pages